Warroad, MN

10:09 PM CDT on August 27, 2016 (GMT -0500)
Warroad International-Carlson

Weather History for KRRT - November, 2012

Change the Weather History Date:

Thursday, November 8, 2012

  Actual Average Record
Temperature  
Mean Temperature 36 °F -  
Max Temperature 41 °F 38 °F 66 °F (1999)
Min Temperature 30 °F 21 °F -9 °F (2003)
Degree Days  
Heating Degree Days 30    
Moisture  
Dew Point 32 °F    
Average Humidity 84    
Maximum Humidity 93    
Minimum Humidity 75    
Precipitation  
Precipitation 0.05 in - - ()
Sea Level Pressure  
Sea Level Pressure 29.94 in    
Wind  
Wind Speed 11 mph (WNW)    
Max Wind Speed 18 mph    
Max Gust Speed 25 mph    
Visibility 10 miles    
Events Rain    
Averages and records for this station are not official NWS values.
T = Trace of Precipitation, MM = Missing Value Source: NWS Daily Summary

Daily Weather History Graph

Daily Weather History Graph

Search for Another Location

Airport or City:

Trip Planner

Search our weather history database for the weather conditions in past years. The results will help you decide how hot, cold, wet, or windy it might be!

Date:

Astronomy

Nov. 08, 2012 Rise Set
Actual Time 7:20 AM CST 4:49 PM CST
Civil Twilight 6:46 AM CST 5:23 PM CST
Nautical Twilight 6:08 AM CST 6:01 PM CST
Astronomical Twilight 5:31 AM CST 6:37 PM CST
Moon 12:47 AM CST (11/8) 1:56 PM CST (11/8)
Length of Visible Light 10h 36m
Length of Day
9h 28m
Waning Crescent, 32% of the Moon is Illuminated
Nov 8
Waning Crescent
Nov 13
New
Nov 20
First Quarter
Nov 28
Full
Dec 6
Last Quarter

Hourly Weather History & Observations

Time (CST) Temp. Windchill Dew Point Humidity Pressure Visibility Wind Dir Wind Speed Gust Speed Precip Events Conditions
12:14 AM 39.2 °F 32.5 °F 33.8 °F 81% 29.81 in 10.0 mi SSE 10.4 mph - N/A   Scattered Clouds
12:34 AM 39.2 °F 32.0 °F 33.8 °F 81% 29.80 in 10.0 mi SE 11.5 mph - N/A   Scattered Clouds
12:54 AM 39.2 °F 32.0 °F 35.6 °F 87% 29.79 in 10.0 mi SE 11.5 mph - N/A Rain Light Rain
1:13 AM 39.2 °F 32.0 °F 35.6 °F 87% 29.78 in 10.0 mi SSE 11.5 mph - N/A Rain Light Rain
1:34 AM 39.2 °F 31.6 °F 35.6 °F 87% 29.77 in 10.0 mi SSE 12.7 mph 16.1 mph N/A   Overcast
1:54 AM 39.2 °F 31.6 °F 35.6 °F 87% 29.77 in 10.0 mi SSE 12.7 mph - N/A   Overcast
2:14 AM 39.2 °F 33.0 °F 35.6 °F 87% 29.77 in 10.0 mi South 9.2 mph - N/A   Mostly Cloudy
2:34 AM 39.2 °F 33.6 °F 35.6 °F 87% 29.77 in 10.0 mi South 8.1 mph - N/A   Mostly Cloudy
2:54 AM 39.2 °F 31.6 °F 35.6 °F 87% 29.76 in 10.0 mi South 12.7 mph - N/A   Scattered Clouds
3:14 AM 39.2 °F 31.2 °F 35.6 °F 87% 29.73 in 10.0 mi South 13.8 mph 18.4 mph N/A   Scattered Clouds
3:34 AM 39.2 °F 34.2 °F 33.8 °F 81% 29.76 in 10.0 mi SSW 6.9 mph - N/A   Clear
3:54 AM 39.2 °F 34.2 °F 35.6 °F 87% 29.74 in 10.0 mi South 6.9 mph - N/A   Scattered Clouds
4:14 AM 39.2 °F 33.6 °F 35.6 °F 87% 29.74 in 10.0 mi South 8.1 mph - N/A   Mostly Cloudy
4:34 AM 41.0 °F 34.3 °F 35.6 °F 81% 29.75 in 10.0 mi SSW 11.5 mph 19.6 mph N/A   Overcast
4:54 AM 41.0 °F 34.7 °F 35.6 °F 81% 29.74 in 10.0 mi SSW 10.4 mph 18.4 mph N/A   Overcast
5:14 AM 41.0 °F 34.7 °F 35.6 °F 81% 29.72 in 10.0 mi South 10.4 mph 20.7 mph N/A   Overcast
5:34 AM 39.2 °F 30.8 °F 35.6 °F 87% 29.73 in 10.0 mi SSW 15.0 mph 25.3 mph N/A Rain Light Rain
5:54 AM 39.2 °F 32.5 °F 35.6 °F 87% 29.72 in 7.0 mi SSW 10.4 mph - 0.04 in Rain Heavy Rain
6:14 AM 39.2 °F 32.5 °F 35.6 °F 87% 29.75 in 10.0 mi SW 10.4 mph - 0.01 in   Light Drizzle
6:34 AM 39.2 °F 32.0 °F 35.6 °F 87% 29.76 in 10.0 mi SW 11.5 mph - 0.01 in   Overcast
6:54 AM 39.2 °F 31.6 °F 35.6 °F 87% 29.76 in 10.0 mi SW 12.7 mph - 0.01 in   Scattered Clouds
7:14 AM 39.2 °F 31.6 °F 35.6 °F 87% 29.77 in 10.0 mi SW 12.7 mph 19.6 mph N/A   Scattered Clouds
7:33 AM 39.2 °F 31.6 °F 35.6 °F 87% 29.77 in 10.0 mi SW 12.7 mph - N/A   Overcast
7:54 AM 39.2 °F 32.5 °F 35.6 °F 87% 29.78 in 10.0 mi SW 10.4 mph 18.4 mph N/A   Overcast
8:14 AM 39.2 °F 33.0 °F 35.6 °F 87% 29.79 in 10.0 mi WSW 9.2 mph 18.4 mph N/A   Overcast
8:34 AM 39.2 °F 31.6 °F 35.6 °F 87% 29.81 in 10.0 mi WSW 12.7 mph 17.3 mph N/A   Overcast
8:54 AM 39.2 °F 32.0 °F 35.6 °F 87% 29.81 in 10.0 mi West 11.5 mph 18.4 mph N/A   Overcast
9:14 AM 39.2 °F 31.2 °F 35.6 °F 87% 29.82 in 7.0 mi West 13.8 mph 19.6 mph N/A   Overcast
9:34 AM 39.2 °F 32.0 °F 35.6 °F 87% 29.84 in 7.0 mi West 11.5 mph 17.3 mph N/A   Overcast
9:54 AM 39.2 °F 32.0 °F 35.6 °F 87% 29.85 in 7.0 mi West 11.5 mph - N/A   Overcast
10:14 AM 39.2 °F 33.6 °F 35.6 °F 87% 29.87 in 5.0 mi WNW 8.1 mph - N/A   Overcast
10:34 AM 39.2 °F 31.2 °F 35.6 °F 87% 29.88 in 5.0 mi WNW 13.8 mph 20.7 mph N/A   Overcast
10:54 AM 39.2 °F 30.8 °F 35.6 °F 87% 29.89 in 5.0 mi NW 15.0 mph 23.0 mph N/A   Overcast
11:14 AM 39.2 °F 31.2 °F 35.6 °F 87% 29.91 in 5.0 mi NW 13.8 mph 21.9 mph N/A   Overcast
11:34 AM 39.2 °F 32.0 °F 35.6 °F 87% 29.91 in 5.0 mi NW 11.5 mph 17.3 mph N/A   Overcast
11:54 AM 39.2 °F 32.5 °F 35.6 °F 87% 29.92 in 10.0 mi NW 10.4 mph 18.4 mph N/A   Overcast
12:14 PM 39.2 °F 30.8 °F 35.6 °F 87% 29.93 in 10.0 mi NW 15.0 mph 20.7 mph N/A   Overcast
12:34 PM 39.2 °F 30.8 °F 35.6 °F 87% 29.94 in 10.0 mi NW 15.0 mph 19.6 mph N/A   Overcast
12:54 PM 39.2 °F 32.0 °F 33.8 °F 81% 29.95 in 10.0 mi NW 11.5 mph 17.3 mph N/A   Overcast
1:14 PM 37.4 °F 29.8 °F 33.8 °F 87% 29.96 in 10.0 mi NW 11.5 mph 19.6 mph N/A   Overcast
1:34 PM 39.2 °F 31.2 °F 33.8 °F 81% 29.97 in 10.0 mi NNW 13.8 mph 18.4 mph N/A   Overcast
1:54 PM 39.2 °F 30.8 °F 33.8 °F 81% 29.98 in 10.0 mi North 15.0 mph - N/A   Overcast
2:14 PM 37.4 °F 28.9 °F 33.8 °F 87% 30.00 in 10.0 mi NNW 13.8 mph 24.2 mph N/A   Overcast
2:34 PM 39.2 °F 31.6 °F 32.0 °F 75% 30.01 in 10.0 mi NNW 12.7 mph 18.4 mph N/A   Overcast
2:53 PM 39.2 °F 32.5 °F 32.0 °F 75% 30.02 in 10.0 mi NNW 10.4 mph - N/A   Overcast
3:14 PM 37.4 °F 28.9 °F 32.0 °F 81% 30.02 in 10.0 mi NNW 13.8 mph 18.4 mph N/A   Overcast
3:34 PM 37.4 °F 28.5 °F 32.0 °F 81% 30.03 in 10.0 mi NNW 15.0 mph 21.9 mph N/A   Overcast
3:54 PM 37.4 °F 29.8 °F 32.0 °F 81% 30.05 in 10.0 mi NNW 11.5 mph 16.1 mph N/A   Overcast
4:14 PM 37.4 °F 29.3 °F 32.0 °F 81% 30.06 in 10.0 mi NW 12.7 mph 17.3 mph N/A   Overcast
4:34 PM 35.6 °F 28.0 °F 30.2 °F 81% 30.07 in 10.0 mi NNW 10.4 mph - N/A   Overcast
4:54 PM 35.6 °F 28.0 °F 30.2 °F 81% 30.08 in 10.0 mi NNW 10.4 mph 19.6 mph N/A   Overcast
5:14 PM 35.6 °F 28.0 °F 30.2 °F 81% 30.09 in 10.0 mi NNW 10.4 mph - N/A   Overcast
5:34 PM 33.8 °F 26.4 °F 32.0 °F 93% - 10.0 mi NNW 9.2 mph 16.1 mph N/A   Overcast
5:54 PM 32.0 °F 24.8 °F 28.4 °F 87% 30.11 in 10.0 mi NW 8.1 mph - N/A   Mostly Cloudy
6:14 PM 30.2 °F 22.6 °F 26.6 °F 86% 30.12 in 10.0 mi NW 8.1 mph - N/A   Scattered Clouds
6:33 PM 30.2 °F 24.3 °F 26.6 °F 86% 30.12 in 10.0 mi NNW 5.8 mph - N/A   Scattered Clouds
6:54 PM 30.2 °F 22.6 °F 26.6 °F 86% 30.13 in 10.0 mi NW 8.1 mph - N/A   Scattered Clouds
7:14 PM 30.2 °F 18.1 °F 26.6 °F 86% 30.13 in 10.0 mi NNW 18.4 mph - N/A   Mostly Cloudy
7:34 PM 30.2 °F 18.9 °F 26.6 °F 86% 30.13 in 10.0 mi NNW 16.1 mph 23.0 mph N/A   Overcast
7:54 PM 30.2 °F 20.2 °F 26.6 °F 86% 30.14 in 10.0 mi North 12.7 mph 18.4 mph N/A   Overcast
8:14 PM 30.2 °F 20.8 °F 24.8 °F 80% 30.14 in 10.0 mi North 11.5 mph 17.3 mph N/A   Overcast
8:34 PM 30.2 °F 20.8 °F 24.8 °F 80% 30.15 in 10.0 mi North 11.5 mph 17.3 mph N/A   Overcast
8:54 PM 30.2 °F 21.3 °F 24.8 °F 80% 30.15 in 10.0 mi North 10.4 mph - N/A   Overcast
9:12 PM 30.2 °F 21.3 °F 24.8 °F 80% 30.16 in 10.0 mi North 10.4 mph 17.3 mph N/A   Overcast
9:34 PM 30.2 °F 26.7 °F 24.8 °F 80% 30.17 in 10.0 mi North 3.5 mph - N/A   Overcast
9:54 PM 30.2 °F 22.6 °F 24.8 °F 80% 30.17 in 10.0 mi North 8.1 mph - N/A   Overcast
10:13 PM 30.2 °F 20.2 °F 24.8 °F 80% 30.17 in 10.0 mi North 12.7 mph 19.6 mph N/A   Overcast
10:34 PM 30.2 °F 23.4 °F 24.8 °F 80% 30.19 in 10.0 mi NNW 6.9 mph - N/A   Overcast
10:54 PM 30.2 °F 23.4 °F 24.8 °F 80% 30.19 in 10.0 mi NNW 6.9 mph - N/A   Overcast
11:07 PM 30.2 °F 23.4 °F 24.8 °F 80% 30.20 in 10.0 mi NNW 6.9 mph - N/A   Overcast
11:31 PM - - - N/A% 30.19 in 10.0 mi North 6.9 mph - N/A   Overcast
11:54 PM 30.2 °F - 24.8 °F 80% 30.20 in 10.0 mi Calm Calm - N/A   Overcast